Retour au catalogue

COSMOS 2251 DEB

ActifLEO
NORAD 34728·DEBRIS·🇷🇺 Russia

Lancé Jun 16, 1993 depuis Plesetsk Cosmodrome

Loading…

Prochains Passages (prochaines 24 heures)

TLE

FraisSource: Space-Track

Époque: Sep 12, 2026, 21:59 UTC

1 34728U 93036YW  26255.91664816  .00002217  00000-0  34731-3 0  9999
2 34728  74.0132  77.8587 0041661 167.7593 192.4602 14.72781210928344

Suivez COSMOS 2251 DEB en temps réel avec AllMySat

Download on the App Store